Regional Weather Roundup
Issued by NWS

Home | Current Version | Previous Version | Text Only | Print | Product List | Glossary Off
Versions: 1 2 3 4 5 6 7 8 9 10 11 12 13 14 15 16 17 18 19 20 21 22 23 24 25 26 27 28 29 30 31 32 33 34 35 36 37 38 39 40 41 42 43 44 45 46 47 48 49 50

271
ASUS45 KBOI 171010
RWRID

IDAHO REGIONAL WEATHER ROUNDUP
NATIONAL WEATHER SERVICE BOISE ID
400 AM MDT THU AUG 17 2017

NOTE: "FAIR" INDICATES FEW OR NO CLOUDS BELOW 12000 FEET
WITH NO SIGNIFICANT WEATHER AND/OR OBSTRUCTIONS TO VISIBILITY

IDZ012-014-171100-
SOUTHWEST IDAHO


CITY           SKY/WX    TMP DP  RH WIND       PRES   REMARKS
BOISE          FAIR      62  43  49 S3        30.02R
CALDWELL       FAIR      63  45  51 W8        30.01R
MOUNTAIN HOME  FAIR      59  38  45 NW5       30.02R
$$

IDZ016-017-171100-
SOUTHCENTRAL IDAHO


CITY           SKY/WX    TMP DP  RH WIND       PRES   REMARKS
BURLEY         FAIR      57  41  55 SW12      30.05R
JEROME         FAIR      62  39  42 S6        30.07R
TWIN FALLS     FAIR      62  36  37 S14       30.07R
$$

IDZ019>023-171100-
SOUTHEAST IDAHO


CITY           SKY/WX    TMP DP  RH WIND       PRES   REMARKS
IDAHO FALLS    CLEAR     57  41  55 SW9       30.07R
POCATELLO      CLEAR     57  38  48 VRB5      30.07R
REXBURG        CLEAR     61  37  41 S6        30.07R
$$

IDZ006-010-011-018-031-032-171100-
CENTRAL IDAHO MOUNTAINS


CITY           SKY/WX    TMP DP  RH WIND       PRES   REMARKS
MCCALL         FAIR      51  39  63 CALM      30.12S
HAILEY         FAIR      54  39  58 NW12      30.13R
STANLEY          N/A     38  31  76 CALM      30.23R
SALMON         CLEAR     51  39  63 CALM      30.09R
CHALLIS        FAIR      53  36  52 CALM      30.12R
$$

IDZ002-004-006-007-026-171100-
NORTHERN IDAHO


CITY           SKY/WX    TMP DP  RH WIND       PRES   REMARKS
LEWISTON       FAIR      65  43  44 CALM      29.97R
LOWELL           N/A     56  46  69 CALM      30.04R
COEUR D`ALENE  FAIR      59  44  57 CALM      29.97S
MULLAN PASS    FAIR      55  36  48 VRB5      30.15S
$$




USA.gov is the U.S. government's official web portal to all federal, state and local government web resources and services.